Regional Weather Roundup
Issued by NWS Binghamton, NY

Home | Current Version | Previous Version | Text Only | Print | Product List | Glossary On
Versions: 1 2 3 4 5 6 7 8 9 10 11 12 13 14 15 16 17 18 19 20 21 22 23 24 25 26 27 28 29 30 31 32 33 34 35 36 37 38 39 40 41 42 43 44 45 46 47 48 49 50
000
ASUS41 KBGM 251010
RWRBGM
RWRBGM
BINGHAMTON REGIONAL WEATHER ROUNDUP
NATIONAL WEATHER SERVICE BINGHAMTON NY
500 AM EST SUN JAN 25 2015

Note: "fair" indicates few or no clouds below 12,000 feet with no
significant weather and/or obstructions to visibility.

* = Station(s) that does not report precipitation, such as rain,
snow, etc, also no thunder or fog.

!NYZ009-015>018-022>025-036-037-044>046-055>057-062-251100
...CENTRAL NEW YORK...

CITY           SKY/WX    TMP DP  RH WIND       PRES   REMARKS
BINGHAMTON     FLURRIES  29  26  89 W14G25    29.52R WCI  18
CORTLAND       CLOUDY    32  25  74 W10G21    29.57R WCI  24
DANSVILLE      CLOUDY    31  19  61 NW14G25   29.66R WCI  21
ELMIRA         MOCLDY    34  22  61 W13G36    29.60R WCI  25
ITHACA         FLURRIES  31  23  72 NW18G25   29.59R WCI  19
HAMILTON       CLOUDY    30  25  80 NW13G21   29.53  WCI  20
MONTICELLO     CLOUDY    28  25  86 W9        29.51R WCI  20
NORWICH        CLOUDY    32  21  64 NW8G18    29.54R WCI  25
ONEONTA        CLOUDY    28  21  74 W13G24    29.47R WCI  18
PENN YAN       MOCLDY    31  18  58 W12G23    29.61R WCI  22
ROME           FLURRIES  30  23  75 W21G32    29.55R WCI  17
SIDNEY         CLOUDY    34  30  86 W9        29.53R WCI  26
SYRACUSE       FLURRIES  28  21  75 W18G35    29.59R WCI  15
$$

!PAZ038>040-043-044-047-048-072-251100
...NORTHEAST PENNSYLVANIA...

CITY           SKY/WX    TMP DP  RH WIND       PRES   REMARKS
HAZLETON       CLOUDY    32  28  86 W9G17     29.61R WCI  24
SCRANTON       CLOUDY    32  25  75 SW13      29.58R WCI  22
TOWANDA*       CLOUDY    34  27  75 W6        29.61R WCI  29
$$
&&
KEY
WCI = WIND CHILL INDEX
VSB = VISIBILITY
HX  = HEAT INDEX
$$


USA.gov is the U.S. government's official web portal to all federal, state and local government web resources and services.